W2JV-2 Weather Reports


Display with metric or nautical units.
time (UTC)temp
F
wind
direction
speed
MPH
gust
MPH
rain 1hr
in
rain 24hr
in
rain mn
in
humidity
%
barometer
mb
20260506235004 61 215 2.0 8.0 0.00 0.00 0.00 74 1007.4
20260506234504 61 231 2.0 5.0 0.00 0.00 0.00 74 1007.5
20260506233503 61 205 1.0 3.0 0.00 0.00 0.00 74 1007.4
20260506233003 61 225 2.0 5.0 0.00 0.00 0.00 74 1007.4
20260506232502 61 222 2.0 5.0 0.00 0.00 0.00 74 1007.4
20260506232002 61 200 1.0 3.0 0.00 0.00 0.00 74 1007.4
20260506231504 61 220 2.0 5.0 0.00 0.00 0.00 74 1007.2
20260506231003 61 235 2.0 5.0 0.00 0.00 0.00 74 1007.2
20260506230502 61 234 1.0 3.0 0.00 0.00 0.00 74 1007.2
20260506225503 61 215 2.0 3.0 0.00 0.00 0.00 74 1007.2
20260506225003 61 208 1.0 5.0 0.00 0.00 0.00 74 1007.2
20260506224503 61 248 1.0 3.0 0.00 0.00 0.00 74 1007.2
20260506224003 62 208 2.0 5.0 0.00 0.00 0.00 73 1007.1
20260506223503 62 202 2.0 3.0 0.00 0.00 0.00 73 1007.0
20260506222503 62 201 2.0 3.0 0.00 0.00 0.00 73 1007.0
20260506222003 62 175 2.0 5.0 0.00 0.00 0.00 73 1007.1
20260506221503 62 201 1.0 3.0 0.00 0.00 0.00 73 1007.1
20260506221004 62 212 3.0 8.0 0.00 0.00 0.00 73 1007.0
20260506220503 63 238 2.0 10.0 0.00 0.00 0.00 73 1006.9
20260506220003 63 222 2.0 10.0 0.00 0.00 0.00 73 1006.8
20260506215503 63 219 3.0 5.0 0.00 0.00 0.00 74 1006.8
20260506215003 63 195 3.0 7.0 0.00 0.00 0.00 74 1006.7
20260506214504 63 227 2.0 9.0 0.00 0.00 0.00 74 1006.7
20260506214004 63 178 2.0 10.0 0.00 0.00 0.00 74 1006.6
20260506213503 63 198 3.0 7.0 0.00 0.00 0.00 75 1006.6
20260506213003 63 203 3.0 9.0 0.00 0.00 0.00 75 1006.5
20260506212503 63 209 3.0 10.0 0.00 0.00 0.00 76 1006.5
20260506212004 63 182 2.0 8.0 0.00 0.00 0.00 77 1006.5
20260506211504 63 200 3.0 7.0 0.00 0.00 0.00 78 1006.4
20260506211004 62 205 2.0 5.0 0.00 0.00 0.00 79 1006.5
20260506210502 62 215 4.0 8.0 0.00 0.00 0.00 79 1006.4
20260506210003 61 219 3.0 5.0 0.00 0.00 0.00 79 1006.4
20260506205503 61 219 1.0 3.0 0.00 0.00 0.00 79 1006.4
20260506205003 60 238 2.0 5.0 0.00 0.00 0.00 78 1006.4
20260506204502 60 223 1.0 5.0 0.00 0.00 0.00 78 1006.6
20260506204003 60 175 2.0 6.0 0.00 0.00 0.00 78 1006.7
20260506203503 60 208 1.0 3.0 0.00 0.00 0.00 78 1006.7
20260506203004 60 238 2.0 5.0 0.00 0.00 0.00 78 1006.9
20260506202504 60 216 3.0 10.0 0.00 0.00 0.00 77 1007.0
20260506202003 60 227 2.0 7.0 0.00 0.00 0.00 78 1007.0
20260506201503 60 223 2.0 7.0 0.00 0.00 0.00 78 1007.0
20260506201003 60 233 2.0 9.0 0.00 0.00 0.00 78 1007.1
20260506200503 60 225 3.0 8.0 0.00 0.00 0.00 78 1007.1
20260506200003 60 226 2.0 6.0 0.00 0.00 0.00 77 1007.2
20260506195503 60 235 3.0 8.0 0.00 0.00 0.00 77 1007.3
20260506195004 60 228 2.0 7.0 0.00 0.00 0.00 77 1007.3
20260506194503 60 221 3.0 7.0 0.00 0.00 0.00 77 1007.2
20260506194003 61 181 2.0 7.0 0.00 0.00 0.00 77 1007.2
20260506193502 61 166 5.0 12.0 0.00 0.00 0.00 77 1007.1
20260506193003 61 198 3.0 10.0 0.00 0.00 0.00 77 1007.0
20260506192503 61 210 3.0 12.0 0.00 0.00 0.00 77 1007.0
20260506192003 61 193 5.0 16.0 0.00 0.00 0.00 77 1007.2
20260506191003 62 211 4.0 8.0 0.00 0.00 0.00 79 1007.1
20260506190503 62 182 4.0 10.0 0.00 0.00 0.00 80 1007.1
20260506190004 62 197 3.0 10.0 0.00 0.00 0.00 81 1007.0
20260506185503 62 222 4.0 8.0 0.00 0.00 0.00 81 1007.2
20260506185003 62 213 3.0 8.0 0.00 0.00 0.00 82 1007.3
20260506184504 62 185 2.0 8.0 0.00 0.00 0.00 82 1007.3
20260506184003 61 203 3.0 9.0 0.00 0.00 0.00 82 1007.6
20260506183503 61 189 2.0 8.0 0.00 0.00 0.00 82 1007.9
20260506182502 61 213 3.0 7.0 0.00 0.00 0.00 81 1007.8
20260506181503 61 222 3.0 9.0 0.00 0.00 0.00 82 1007.9
20260506181004 61 199 2.0 8.0 0.00 0.00 0.00 82 1007.8
20260506175003 61 196 2.0 8.0 0.00 0.00 0.00 78 1008.1
20260506174504 61 212 3.0 8.0 0.00 0.00 0.00 78 1008.3
20260506174003 61 173 2.0 7.0 0.00 0.00 0.00 78 1008.4
20260506173503 61 182 2.0 7.0 0.00 0.00 0.00 77 1008.5
20260506172003 61 195 2.0 5.0 0.00 0.00 0.00 75 1008.7
20260506170503 61 220 1.0 7.0 0.00 0.00 0.00 73 1009.1
20260506170003 61 182 1.0 7.0 0.00 0.00 0.00 72 1009.2
20260506165503 61 217 1.0 7.0 0.00 0.00 0.00 72 1009.3
20260506165005 62 209 3.0 9.0 0.00 0.00 0.00 71 1009.3
20260506164503 62 219 2.0 7.0 0.00 0.00 0.00 71 1009.2
20260506164003 62 217 2.0 7.0 0.00 0.00 0.00 71 1009.4
20260506163502 62 231 2.0 8.0 0.00 0.00 0.00 70 1009.5
20260506162003 63 202 3.0 9.0 0.00 0.00 0.00 69 1009.5
20260506161502 63 202 5.0 12.0 0.00 0.00 0.00 69 1009.4
20260506161003 63 199 2.0 7.0 0.00 0.00 0.00 69 1009.4
20260506160503 64 199 3.0 9.0 0.00 0.00 0.00 69 1009.6
20260506160003 64 213 4.0 8.0 0.00 0.00 0.00 68 1009.5
20260506155005 64 218 6.0 13.0 0.00 0.00 0.00 67 1009.5
20260506154503 65 236 5.0 10.0 0.00 0.00 0.00 67 1009.6
20260506154004 65 194 3.0 9.0 0.00 0.00 0.00 67 1009.7
20260506153503 65 212 3.0 7.0 0.00 0.00 0.00 67 1009.8
20260506153003 65 192 3.0 6.0 0.00 0.00 0.00 67 1009.8
20260506152503 65 195 4.0 7.0 0.00 0.00 0.00 67 1009.8
20260506152004 65 192 3.0 10.0 0.00 0.00 0.00 67 1009.8
20260506151004 64 215 5.0 8.0 0.00 0.00 0.00 67 1009.8
20260506150504 64 172 3.0 9.0 0.00 0.00 0.00 67 1009.5
20260506150003 64 193 4.0 7.0 0.00 0.00 0.00 68 1009.5
20260506145504 64 173 3.0 8.0 0.00 0.00 0.00 68 1009.5
20260506145004 64 231 3.0 8.0 0.00 0.00 0.00 67 1009.5
20260506144504 64 211 4.0 10.0 0.00 0.00 0.00 67 1009.4
20260506144003 65 209 2.0 6.0 0.00 0.00 0.00 67 1009.4
20260506143504 65 216 5.0 9.0 0.00 0.00 0.00 67 1009.6
20260506142503 65 208 3.0 10.0 0.00 0.00 0.00 67 1009.7
20260506142004 65 227 3.0 8.0 0.00 0.00 0.00 67 1009.8
20260506141503 65 213 5.0 13.0 0.00 0.00 0.00 67 1009.7
20260506141004 64 200 5.0 14.0 0.00 0.00 0.00 67 1009.8
20260506140503 64 224 5.0 16.0 0.00 0.00 0.00 67 1009.8
20260506140003 64 230 5.0 12.0 0.00 0.00 0.00 68 1009.8
20260506135503 64 218 3.0 9.0 0.00 0.00 0.00 68 1009.9
20260506134504 64 218 5.0 10.0 0.00 0.00 0.00 68 1010.0
20260506134004 63 218 5.0 12.0 0.00 0.00 0.00 68 1010.0
20260506133504 64 208 5.0 14.0 0.00 0.00 0.00 68 1010.0
20260506133004 64 189 6.0 12.0 0.00 0.00 0.00 68 1010.0
20260506132503 63 207 3.0 14.0 0.00 0.00 0.00 69 1009.9
20260506132003 63 218 2.0 13.0 0.00 0.00 0.00 69 1009.7
20260506131503 63 213 6.0 12.0 0.00 0.00 0.00 68 1009.8
20260506131004 63 223 4.0 12.0 0.00 0.00 0.00 69 1009.8
20260506130503 63 190 3.0 9.0 0.00 0.00 0.00 69 1009.7
20260506130003 63 220 5.0 10.0 0.00 0.00 0.00 69 1009.7
20260506125503 63 217 4.0 9.0 0.00 0.00 0.00 69 1009.8
20260506125003 63 198 3.0 13.0 0.00 0.00 0.00 69 1009.7
20260506124504 63 226 3.0 17.0 0.00 0.00 0.00 69 1009.7
20260506123504 63 208 4.0 9.0 0.00 0.00 0.00 70 1010.0
20260506123004 62 184 3.0 9.0 0.00 0.00 0.00 70 1010.1
20260506122503 62 179 5.0 12.0 0.00 0.00 0.00 70 1010.1
20260506122003 62 206 5.0 13.0 0.00 0.00 0.00 71 1010.2
20260506121503 62 165 4.0 9.0 0.00 0.00 0.00 71 1010.4
20260506121004 61 232 2.0 9.0 0.00 0.00 0.00 72 1010.3
20260506120503 61 211 3.0 14.0 0.00 0.00 0.00 72 1010.2
20260506120003 61 173 3.0 8.0 0.00 0.00 0.00 73 1010.3
20260506114502 60 212 2.0 8.0 0.00 0.00 0.00 75 1010.0
20260506114003 60 186 2.0 7.0 0.00 0.00 0.00 75 1010.1
20260506113503 59 215 2.0 7.0 0.00 0.00 0.00 76 1010.0
20260506113003 59 194 2.0 5.0 0.00 0.00 0.00 76 1010.0
20260506112503 59 191 2.0 5.0 0.00 0.00 0.00 76 1010.0
20260506112004 59 189 3.0 7.0 0.00 0.00 0.00 76 1010.1
20260506110503 58 207 2.0 5.0 0.00 0.00 0.00 76 1010.3
20260506110004 58 197 2.0 5.0 0.00 0.00 0.00 76 1010.2
20260506105504 58 205 1.0 3.0 0.00 0.00 0.00 76 1010.1
20260506105003 58 190 2.0 7.0 0.00 0.00 0.00 76 1010.1
20260506104503 58 194 2.0 7.0 0.00 0.00 0.00 76 1010.2
20260506104003 58 192 2.0 6.0 0.00 0.00 0.00 76 1010.1
20260506102504 58 191 2.0 3.0 0.00 0.00 0.00 76 1010.0
20260506101503 58 200 2.0 6.0 0.00 0.00 0.00 76 1010.0
20260506101004 58 196 2.0 5.0 0.00 0.00 0.00 76 1010.0
20260506100503 58 191 2.0 7.0 0.00 0.00 0.00 76 1010.1
20260506095504 58 215 2.0 8.0 0.00 0.00 0.00 75 1010.0
20260506095004 58 166 2.0 5.0 0.00 0.00 0.00 75 1010.0
20260506094503 58 220 2.0 5.0 0.00 0.00 0.00 75 1010.0
20260506094003 58 220 2.0 7.0 0.00 0.00 0.00 75 1009.9
20260506093504 58 214 2.0 9.0 0.00 0.00 0.00 75 1009.9
20260506093003 58 213 3.0 8.0 0.00 0.00 0.00 75 1009.9
20260506092503 58 217 3.0 10.0 0.00 0.00 0.00 75 1009.9
20260506092003 58 210 2.0 8.0 0.00 0.00 0.00 75 1010.0
20260506091504 58 209 2.0 8.0 0.00 0.00 0.00 75 1010.0
20260506090503 58 209 2.0 7.0 0.00 0.00 0.00 74 1010.0
20260506090003 58 202 2.0 6.0 0.00 0.00 0.00 74 1010.1
20260506084503 58 201 2.0 6.0 0.00 0.00 0.00 74 1010.3
20260506083503 58 183 2.0 6.0 0.00 0.00 0.00 73 1010.4
20260506083004 58 155 2.0 5.0 0.00 0.00 0.00 73 1010.4
20260506082503 58 178 2.0 6.0 0.00 0.00 0.00 73 1010.4
20260506082003 58 205 2.0 5.0 0.00 0.00 0.00 73 1010.4
20260506081503 58 205 2.0 8.0 0.00 0.00 0.00 73 1010.4
20260506080503 58 197 2.0 6.0 0.00 0.00 0.00 73 1010.4
20260506073504 58 202 2.0 7.0 0.00 0.00 0.00 72 1010.5
20260506073003 58 181 2.0 7.0 0.00 0.00 0.00 72 1010.5
20260506072503 58 196 2.0 6.0 0.00 0.00 0.00 72 1010.6
20260506072003 58 195 2.0 6.0 0.00 0.00 0.00 72 1010.6
20260506071503 59 192 2.0 5.0 0.00 0.00 0.00 72 1010.5
20260506071003 59 174 2.0 5.0 0.00 0.00 0.00 72 1010.6
20260506070504 59 186 2.0 5.0 0.00 0.00 0.00 72 1010.7
20260506062503 59 188 2.0 5.0 0.00 0.00 0.00 71 1010.6
20260506062003 59 210 2.0 6.0 0.00 0.00 0.00 71 1010.6
20260506061003 59 196 2.0 6.0 0.00 0.00 0.00 71 1010.5
20260506051003 60 195 2.0 7.0 0.00 0.00 0.00 69 1010.7
20260506050503 61 212 2.0 8.0 0.00 0.00 0.00 69 1010.8
20260506044503 61 219 2.0 8.0 0.00 0.00 0.00 69 1010.9
20260506043003 61 206 3.0 8.0 0.00 0.00 0.00 68 1010.8
20260506042503 62 204 3.0 8.0 0.00 0.00 0.00 68 1010.8
20260506042003 62 203 2.0 12.0 0.00 0.00 0.00 68 1010.8
20260506041503 62 205 4.0 10.0 0.00 0.00 0.00 68 1010.8
20260506040503 62 210 3.0 9.0 0.00 0.00 0.00 67 1010.9
20260506040004 62 199 3.0 9.0 0.00 0.00 0.00 67 1010.9
20260506035522 62 205 2.0 7.0 0.00 0.00 0.00 67 1010.9
20260506035015 63 218 2.0 9.0 0.00 0.00 0.00 67 1010.9
20260506034509 63 211 4.0 10.0 0.00 0.00 0.00 67 1010.8
20260506034003 63 214 3.0 10.0 0.00 0.00 0.00 67 1010.8
20260506033004 63 213 4.0 10.0 0.00 0.00 0.00 66 1010.7
20260506032504 63 211 3.0 9.0 0.00 0.00 0.00 66 1010.7
20260506032004 63 204 3.0 8.0 0.00 0.00 0.00 66 1010.7
20260506031504 63 220 5.0 15.0 0.00 0.00 0.00 66 1010.7
20260506031004 64 225 4.0 10.0 0.00 0.00 0.00 66 1010.7
20260506030503 64 222 4.0 12.0 0.00 0.00 0.00 66 1010.7
20260506030003 64 210 3.0 8.0 0.00 0.00 0.00 65 1010.7
20260506025504 64 211 4.0 10.0 0.00 0.00 0.00 65 1010.7
20260506025003 64 220 5.0 12.0 0.00 0.00 0.00 65 1010.8
20260506024503 64 189 5.0 12.0 0.00 0.00 0.00 65 1010.7
20260506024005 64 190 3.0 15.0 0.00 0.00 0.00 65 1010.7
20260506023503 64 200 3.0 15.0 0.00 0.00 0.00 65 1010.7
20260506023003 64 226 7.0 14.0 0.00 0.00 0.00 64 1010.8
20260506022503 64 215 6.0 17.0 0.00 0.00 0.00 64 1010.8
20260506022003 64 216 4.0 10.0 0.00 0.00 0.00 64 1010.8
20260506021003 64 222 4.0 13.0 0.00 0.00 0.00 63 1010.8
20260506020503 65 206 5.0 12.0 0.00 0.00 0.00 62 1010.8
20260506020004 65 198 5.0 12.0 0.00 0.00 0.00 62 1010.7
20260506015503 65 207 6.0 14.0 0.00 0.00 0.00 61 1010.7
20260506015004 65 224 6.0 16.0 0.00 0.00 0.00 61 1010.7
20260506014503 65 209 5.0 10.0 0.00 0.00 0.00 61 1010.6
20260506014003 65 203 6.0 13.0 0.00 0.00 0.00 60 1010.6
20260506013503 65 202 5.0 14.0 0.00 0.00 0.00 60 1010.5
20260506013003 65 204 6.0 17.0 0.00 0.00 0.00 60 1010.4
20260506012503 65 185 5.0 15.0 0.00 0.00 0.00 60 1010.3
20260506012003 65 226 5.0 12.0 0.00 0.00 0.00 60 1010.4
20260506011503 65 223 5.0 13.0 0.00 0.00 0.00 60 1010.3
20260506010503 65 201 3.0 10.0 0.00 0.00 0.00 60 1010.1
20260506010003 65 212 4.0 9.0 0.00 0.00 0.00 60 1010.0
20260506005504 65 234 5.0 10.0 0.00 0.00 0.00 60 1010.0
20260506005003 65 212 4.0 15.0 0.00 0.00 0.00 60 1009.9
20260506004504 65 219 7.0 18.0 0.00 0.00 0.00 60 1009.9
20260506003503 65 203 6.0 12.0 0.00 0.00 0.00 59 1009.8
20260506003003 66 201 3.0 10.0 0.00 0.00 0.00 59 1010.0
20260506002504 66 219 6.0 15.0 0.00 0.00 0.00 59 1009.8
20260506001504 66 204 5.0 14.0 0.00 0.00 0.00 59 1009.7
20260506001003 66 232 7.0 20.0 0.00 0.00 0.00 59 1009.6
20260506000004 66 223 7.0 23.0 0.00 0.00 0.00 58 1009.7
20260505235504 66 230 7.0 13.0 0.00 0.00 0.00 59 1009.5